Location: Zagreb
(45.8000°N, 16.0000°E)
Time: 10:44:20
(UTC+02:00)

Explorer 7 - Pass Details

Date: 15 July 2024
Orbit: 444 x 569 km, 50.3° (Epoch: 16 July)

Event Time Altitude Azimuth Distance (km) Brightness Sun altitude
Rises 04:09:46 0° 244° (WSW) 2,859 - -10.4°
Reaches altitude 10° 04:12:05 10° 244° (WSW) 1,951 - -10.1°
Exits shadow 04:12:27 12° 244° (WSW) 1,806 8.9 -10.1°
Maximum altitude 04:16:35 90° 165° (SSE) 601 7.0 -9.6°
Drops below altitude 10° 04:20:57 10° 66° (ENE) 1,896 10.9 -9.0°
Sets 04:23:11 0° 66° (ENE) 2,772 12.0 -8.8°
